Hourly Data Report for September 27, 2019

SAINT JOHN A
NEW BRUNSWICK
Current Station Operator: NAVCAN

45°18'58.000" N
65°53'24.000" W
108.80 m
8104901
71609
YSJ

Download Data

Hourly Data (September 2019)
Hourly Data Report for September 27, 2019
TIME
LST
Temp Definition
°C
Dew Point Definition
°C
Rel Hum Definition
%
Precip. Amount Definition
mm

Wind Dir Definition
10's deg

Wind Spd Definition
km/h
Visibility Definition
km
Stn Press Definition
kPa
Hmdx Definition


Wind Chill Definition


Weather Definition


00:00 13.8 13.8 100   23 18 3.2 99.31     Heavy Rain Showers, Fog
01:00 13.5 13.5 100   34 15 6.4 99.23     Moderate Rain Showers, Fog
02:00 13.2 13.2 100   29 11 24.1 99.40     Cloudy
03:00 13.0 13.0 100   28 8 24.1 99.43     LegendNANA
04:00 12.5 12.5 100   27 12 24.1 99.49     LegendNANA
05:00 12.3 12.3 100   29 10 24.1 99.62     Mostly Cloudy
06:00 11.9 11.7 99   28 9 24.1 99.72     LegendNANA
07:00 11.6 11.4 98   30 9 24.1 99.84     LegendNANA
08:00 12.8 11.6 92   30 14 24.1 99.97     Mainly Clear
09:00 14.0 11.3 84   29 20 24.1 100.07     LegendNANA
10:00 15.2 10.5 73   30 21 24.1 100.13     LegendNANA
11:00 16.5 10.5 68   31 23 24.1 100.17     Mainly Clear
12:00 17.6 10.7 64   33 22 24.1 100.20     LegendNANA
13:00 18.3 9.0 54   32 28 24.1 100.22     LegendNANA
14:00 19.0 9.0 52   32 21 24.1 100.26     Mainly Clear
15:00 18.6 8.9 53   31 19 24.1 100.33     LegendNANA
16:00 18.5 8.8 53   32 13 24.1 100.34     LegendNANA
17:00 18.0 8.7 54   31 15 24.1 100.41     Mainly Clear
18:00 15.7 9.7 67   28 3 24.1 100.42     LegendNANA
19:00 11.3 10.4 95   17 5 24.1 100.48     LegendNANA
20:00 8.3 8.2 99   36 2 24.1 100.52     Clear
21:00 6.3 6.3 100   6 4 24.1 100.57     LegendNANA
22:00 5.9 5.9 100   36 1 24.1 100.62     LegendNANA
23:00 5.9 5.9 100   36 3 24.1 100.65     Clear

Notes on Data Quality.

Legend

  • E = Estimated
  • M = Missing
  • NA = Not Available*
  • [empty] = Indicates an unobserved value
Date modified: